Regional Weather Roundup
Issued by NWS Burlington, VT

Home | Current Version | Previous Version | Text Only | Print | Product List | Glossary On
Versions: 1 2 3 4 5 6 7 8 9 10 11 12 13 14 15 16 17 18 19 20 21 22 23 24 25 26 27 28 29 30 31 32 33 34 35 36 37 38 39 40 41 42 43 44 45 46 47 48 49 50
000
ASUS41 KBTV 050030
RWRBTV
VERMONT REGIONAL WEATHER ROUNDUP
NATIONAL WEATHER SERVICE BURLINGTON VT
800 PM EDT WED MAY 04 2016

NOTE: "FAIR" INDICATES FEW OR NO CLOUDS BELOW 12,000 FEET WITH NO
SIGNIFICANT WEATHER AND/OR OBSTRUCTIONS TO VISIBILITY.

* THESE REPORTS ARE NOT UNDER NWS QUALITY CONTROL AND/OR DO NOT
  REPORT WEATHER SUCH AS PRECIPITATION AND FOG.

VTZ001>019-050100-
_____VERMONT_____


CITY           SKY/WX    TMP DP  RH WIND       PRES   REMARKS
BURLINGTON     CLOUDY    49  45  86 CALM      29.82F
6HR MIN TEMP:  49; 6HR MAX TEMP:  56; 6HR PCP:  0.04;

MONTPELIER     CLOUDY    46  44  93 CALM      29.86F
6HR MIN TEMP:  46; 6HR MAX TEMP:  48; 6HR PCP:  0.08;

MORRISVILLE    CLOUDY    46  44  93 CALM      29.84S
6HR MIN TEMP:  46; 6HR MAX TEMP:  53; 6HR PCP:  0.01;

ST. JOHNSBURY*   N/A     48  43  82 MISG      29.82S
6HR MIN TEMP:  48; 6HR MAX TEMP:  50; 6HR PCP:  0.03;

LYNDONVILLE*   CLOUDY    45  41  86 N3        29.84F
6HR MIN TEMP:  45; 6HR MAX TEMP:  48;

MIDDLEBURY*    CLOUDY    47  47 100 CALM      29.82R
6HR MIN TEMP:  48; 6HR MAX TEMP:  53; 6HR PCP:  0.09;

RUTLAND*       LGT RAIN  45  43  93 SE6       29.84R
6HR MIN TEMP:  45; 6HR MAX TEMP:  49;

SPRINGFIELD    LGT RAIN  45  43  93 CALM      29.84S
6HR MIN TEMP:  45; 6HR MAX TEMP:  48; 6HR PCP:  0.02;

HIGHGATE*      LGT RAIN  50  44  80 SE5       29.83R
6HR MIN TEMP:  51; 6HR MAX TEMP:  58;

NEWPORT*       CLOUDY    46  41  84 CALM      29.85S
6HR MIN TEMP:  46; 6HR MAX TEMP:  51;

BENNINGTON     CLOUDY    47  41  80 CALM      29.78F
6HR MIN TEMP:  46; 6HR MAX TEMP:  49; 6HR PCP:  0.18;

SUTTON*          N/A     43 N/A N/A MISG        N/A
GALLUP MILLS*    N/A     43 N/A N/A MISG        N/A
UNION VILLAGE*   N/A     46 N/A N/A MISG        N/A
MT. MANSFIELD*   N/A     36 N/A N/A SW16        N/A  WCI  26

_____LAKE CHAMPLAIN_____


CITY           SKY/WX    TMP DP  RH WIND       PRES   REMARKS
COLCHESTER RF*   N/A     46  46 100 S7          N/A
DIAMOND ISL*     N/A     48  46  93 NW2         N/A

$$

NYZ007-026>031-035-052-083-087-050100-
_____NORTHERN NEW YORK_____


CITY           SKY/WX    TMP DP  RH WIND       PRES   REMARKS
PLATTSBURGH    RAIN      48  45  89 S3        29.82S FOG
6HR MIN TEMP:  48; 6HR MAX TEMP:  58; 6HR PCP:  0.04;

SARANAC LAKE   CLOUDY    47  42  83 NE5       29.76R
6HR MIN TEMP:  47; 6HR MAX TEMP:  55; 6HR PCP:  0.02;

MASSENA        CLOUDY    51  46  83 NE9       29.80R
6HR MIN TEMP:  51; 6HR MAX TEMP:  55; 6HR PCP:  0.07;

OGDENSBURG*    PTCLDY    54  48  82 E7        29.78R
POTSDAM*       CLOUDY    50  50 100 E5        29.78
STARK FALLS*     N/A     52 N/A N/A E3          N/A
WATERTOWN      LGT RAIN  53  51  93 E3        29.74R
6HR MIN TEMP:  54; 6HR MAX TEMP:  61; 6HR PCP:  0.07;

FT DRUM        DRIZZLE   54  50  87 E6        29.75R
6HR MIN TEMP:  54; 6HR MAX TEMP:  57; 6HR PCP:  0.07;

ALBANY         CLOUDY    50  44  80 NE3       29.79S
6HR MIN TEMP:  49; 6HR MAX TEMP:  51; 6HR PCP:  0.14;

GLENS FALLS    CLOUDY    49  45  86 NE7       29.80S
6HR MIN TEMP:  49; 6HR MAX TEMP:  53; 6HR PCP:  0.21;


$$
NHZ002-005-011-050100-
_____NEW HAMPSHIRE_____


CITY           SKY/WX    TMP DP  RH WIND       PRES   REMARKS
LEBANON        CLOUDY    48  45  89 CALM      29.83R
6HR MIN TEMP:  48; 6HR MAX TEMP:  51; 6HR PCP:  0.07;

KEENE          CLOUDY    46  43  87 N3        29.84R
6HR MIN TEMP:  45; 6HR MAX TEMP:  46; 6HR PCP:  0.06;

MT WASHINGTON  SNOWSHWR  34  34 100 NE14        N/A  VSB 1/8 WCI  24
6HR MIN TEMP:  32; 6HR MAX TEMP:  35; 6HR PCP:  0.11;

PLYMOUTH       DRIZZLE   46  45  95 CALM      29.84R
6HR MIN TEMP:  46; 6HR MAX TEMP:  48; 6HR PCP:  0.14;

WHITEFIELD     CLOUDY    46  39  76 E7        29.83S
6HR MIN TEMP:  46; 6HR MAX TEMP:  50; 6HR PCP:  0.03;


$$

_____REGIONAL QUEBEC LOCATIONS_____


CITY           SKY/WX    TMP DP  RH WIND       PRES   REMARKS
MONTREAL       CLOUDY    55  43  62 NE8       29.80S
QUEBEC CITY    MOCLDY    50  37  62 NE9       29.90R
SHERBROOKE     CLOUDY    50  41  71 SE9       29.84S

_____REGIONAL ONTARIO LOCATIONS_____


CITY           SKY/WX    TMP DP  RH WIND       PRES   REMARKS
OTTAWA         LGT RAIN  54  45  71 NE14      29.80S

______KEY______
VSB  - VISIBILITY IN MILES
WCI  - WIND CHILL INDEX
HX   - HEAT INDEX
$$
NNNN




USA.gov is the U.S. government's official web portal to all federal, state and local government web resources and services.